Date,TemperatureHighF,TemperatureAvgF,TemperatureLowF,DewpointHighF,DewpointAvgF,DewpointLowF,HumidityHigh,HumidityAvg,HumidityLow,PressureMaxIn,PressureMinIn,WindSpeedMaxMPH,WindSpeedAvgMPH,GustSpeedMaxMPH,PrecipitationSumIn
2013-1-1,27,20,10,19,12,5,84,72,50,30.25,30.12,16,5,0,0.00
2013-1-2,24,16,8,14,9,4,87,77,53,30.29,30.19,14,6,18,0.00
2013-1-3,32,25,17,25,19,12,90,80,65,30.32,30.17,20,9,23,0.00
2013-1-4,32,22,12,24,18,9,91,84,67,30.32,30.22,23,9,25,0.00
2013-1-5,34,27,17,32,25,14,96,89,74,30.31,30.02,18,8,21,0.01
2013-1-6,34,26,14,32,23,12,93,87,79,30.38,29.97,22,9,25,0.01
2013-1-7,36,25,12,28,21,10,93,85,66,30.41,30.17,28,8,28,0.00
2013-1-8,41,32,24,33,27,21,92,84,70,30.23,30.09,15,6,17,0.00
2013-1-9,49,38,24,35,28,20,90,71,36,30.53,30.08,27,9,29,0.00
2013-1-10,43,33,21,42,28,17,96,82,57,30.53,29.93,18,6,22,0.40
2013-1-11,52,48,42,52,48,41,97,97,94,29.93,29.72,21,9,22,0.14
2013-1-13,25,19,14,24,16,10,94,87,83,30.29,29.98,19,10,23,0.00
2013-1-14,24,16,11,18,12,8,92,84,70,30.52,30.29,12,3,0,0.00
2013-1-15,29,20,10,22,15,7,92,84,68,30.48,30.16,9,1,0,0.00
2013-1-16,35,26,14,28,21,12,92,84,69,30.17,29.92,24,8,27,0.00
2013-1-17,33,26,15,28,18,11,94,74,46,30.45,30.09,17,5,0,0.00
2013-1-18,39,29,15,30,23,12,91,79,65,30.48,30.01,27,11,32,0.00
2013-1-19,48,40,30,38,32,17,84,75,50,30.03,29.78,34,14,40,0.00
2013-1-20,29,18,13,20,8,5,74,65,53,30.32,29.93,26,10,32,0.00
2013-1-21,15,9,4,8,1,-4,85,68,52,30.34,30.19,27,12,28,0.00
2013-1-22,12,6,-2,1,-2,-6,81,67,52,30.46,30.33,17,8,20,0.00
2013-1-23,21,16,11,13,7,0,87,67,57,30.41,30.16,23,8,26,0.00
2013-1-24,21,14,7,11,5,0,79,67,46,30.67,30.34,17,7,18,0.00
2013-1-25,28,22,17,22,16,9,90,79,67,30.44,30.04,17,6,19,0.00
2013-1-26,30,21,9,19,14,6,87,74,54,30.45,30.20,12,4,0,0.00
2013-1-27,36,28,20,35,24,16,96,84,71,30.44,29.98,18,7,21,0.07
2013-1-28,49,45,36,48,44,36,98,97,96,29.98,29.85,25,7,25,0.05
2013-1-29,60,56,47,58,55,46,98,96,93,29.85,29.39,26,14,32,0.79
2013-1-30,51,37,21,50,35,17,98,94,83,29.65,29.20,27,11,32,0.23
2013-1-31,21,15,5,19,10,1,90,82,75,30.19,29.65,28,16,29,0.00
2013-2-1,18,17,17,15,13,12,90,83,77,30.28,30.26,15,8,16,0.00
2013-2-2,25,18,5,22,15,1,93,89,80,30.27,30.04,17,7,18,0.00
2013-2-3,21,16,5,19,12,2,92,85,77,30.12,30.01,18,6,20,0.00
2013-2-4,28,24,20,24,22,18,93,89,83,30.10,29.87,10,4,0,0.00
2013-2-5,32,25,12,29,22,10,94,90,83,30.12,29.84,21,7,22,0.00
2013-2-6,38,30,19,30,25,16,90,82,69,30.28,30.12,13,4,15,0.00
2013-2-7,43,35,30,37,32,27,96,90,77,30.17,29.85,18,5,19,0.38
2013-2-8,33,29,27,32,26,23,95,89,81,30.42,29.92,23,9,24,0.00
2013-2-9,37,31,27,31,26,22,88,83,77,30.43,30.13,15,5,17,0.00
2013-2-10,49,40,31,47,37,27,95,90,78,30.13,29.55,29,11,37,0.18
2013-2-11,44,34,30,39,27,24,81,78,75,30.07,29.58,33,18,38,0.00
2013-2-12,30,26,21,25,23,18,93,85,81,30.15,29.97,17,6,19,0.00
2013-2-13,44,31,19,36,28,18,95,87,70,29.98,29.76,16,4,18,0.00
2013-2-14,40,35,30,35,31,26,93,84,71,30.01,29.71,24,9,25,0.00
2013-2-15,32,28,21,29,21,12,93,74,46,30.20,30.00,16,7,19,0.00
2013-2-16,21,17,11,14,8,5,78,69,55,30.23,30.15,17,8,19,0.00
2013-2-17,29,19,8,18,9,3,82,64,39,30.28,30.08,11,4,12,0.00
2013-2-18,53,40,26,44,33,18,93,77,64,30.09,29.46,34,14,35,0.20
2013-2-19,30,17,10,28,12,5,91,82,78,30.23,29.60,30,18,34,0.00
2013-2-20,25,16,7,18,10,3,88,77,65,30.40,30.23,15,6,17,0.00
2013-2-21,28,24,20,23,20,16,92,82,79,30.41,30.01,23,8,30,0.00
2013-2-22,33,28,23,32,26,21,96,91,81,30.00,29.86,22,10,23,0.02
2013-2-23,27,24,17,23,20,15,92,84,73,30.01,29.96,17,8,18,0.01
2013-2-24,36,23,11,25,19,9,92,83,61,30.19,30.01,9,2,0,0.00
2013-2-25,42,32,20,32,26,17,92,80,64,30.22,29.97,14,4,14,0.00
2013-2-26,34,33,32,31,29,26,96,88,72,29.96,29.50,24,10,29,0.39
2013-2-27,33,32,31,32,31,30,97,96,93,29.70,29.50,13,6,0,0.11
2013-2-28,35,32,29,32,30,25,96,90,83,30.07,29.70,20,11,23,0.01
2013-3-1,32,28,26,29,25,23,94,90,84,30.18,30.04,19,9,20,0.00
2013-3-2,30,26,19,24,22,15,92,84,76,30.20,30.15,14,6,0,0.00
2013-3-3,33,24,15,20,16,11,88,74,47,30.18,30.10,10,4,0,0.00
2013-3-4,33,27,19,28,22,16,91,82,66,30.17,30.03,13,5,15,0.00
2013-3-10,54,48,39,50,44,36,96,88,78,29.85,29.63,18,6,22,0.57
2013-3-11,49,38,32,47,37,30,97,94,90,29.83,29.58,22,10,24,0.10
2013-3-12,37,31,27,31,27,22,94,85,71,30.05,29.83,22,12,24,0.00
2013-3-13,33,27,23,23,20,17,90,74,55,30.37,30.05,21,10,22,0.00
2013-3-14,34,29,23,30,25,20,95,85,67,30.37,30.12,13,5,13,0.00
2013-3-15,44,36,28,40,33,26,96,92,84,30.12,29.73,13,4,0,0.02
2013-3-16,35,33,30,34,30,25,97,91,80,30.14,29.68,19,9,21,0.00
2013-3-17,35,31,29,26,25,22,86,76,67,30.22,30.01,18,8,21,0.00
2013-3-18,35,30,23,33,27,16,96,89,74,30.02,29.65,29,10,33,0.03
2013-3-19,34,26,19,22,18,13,82,72,56,30.12,29.85,31,17,35,0.00
2013-3-20,26,21,15,20,12,7,84,68,56,30.13,30.06,26,12,31,0.00
2013-3-21,33,23,13,20,14,8,84,69,48,30.10,30.03,15,6,18,0.00
2013-3-22,40,28,17,22,19,13,88,70,43,30.10,30.03,16,4,20,0.00
2013-3-23,41,31,22,27,24,20,93,76,49,30.16,30.02,16,4,18,0.00
2013-3-24,36,32,28,30,26,24,96,82,67,30.04,29.62,25,12,29,0.00
2013-3-25,36,32,28,31,28,26,96,83,76,30.09,29.67,24,12,27,0.00
2013-3-26,40,34,28,29,26,22,89,75,52,30.28,30.09,13,6,15,0.00
2013-3-27,31,31,31,27,27,27,84,84,84,30.28,30.28,0,0,0,0.00
2013-4-17,54,50,41,51,44,-100,96,91,38,30.08,29.80,24,10,30,0.87
2013-4-18,68,57,44,64,55,39,98,94,85,29.80,29.46,28,11,31,0.85
2013-4-19,44,44,44,40,40,40,86,86,86,29.55,29.55,14,14,24,0.85
2013-5-28,72,64,41,64,59,-100,95,92,38,29.97,29.80,31,6,34,0.06
2013-5-29,83,73,64,73,66,61,95,81,64,29.94,29.80,22,7,25,0.06
2013-5-30,83,74,65,72,67,61,92,79,65,29.94,29.80,26,10,31,0.11
2013-5-31,76,70,65,70,66,62,95,88,79,29.91,29.70,20,8,22,0.35
2013-6-1,75,67,61,69,63,59,94,87,74,29.79,29.63,24,11,29,0.26
2013-6-2,63,54,45,60,51,42,95,90,83,30.06,29.73,17,7,20,0.01
2013-6-3,66,54,40,50,45,39,96,73,44,30.14,30.04,9,2,0,0.00
2013-6-4,72,59,44,53,48,42,92,69,39,30.17,30.07,14,3,14,0.00
2013-6-5,77,65,53,56,52,48,89,66,40,30.08,29.90,14,4,17,0.00
2013-6-6,66,60,53,58,52,46,90,73,58,29.90,29.84,22,9,23,0.03
2013-6-7,67,59,50,57,50,41,93,74,53,29.93,29.87,19,8,22,0.00
2013-6-8,77,62,46,58,50,43,90,68,40,30.00,29.91,14,3,13,0.00
2013-6-9,80,71,60,63,57,50,84,64,44,30.00,29.80,16,5,18,0.00
2013-6-10,77,68,60,67,64,59,97,87,67,29.86,29.73,15,4,18,0.63
2013-6-11,83,71,57,69,64,56,98,81,52,29.93,29.79,11,3,13,0.01
2013-6-12,91,75,64,75,70,62,96,84,53,29.89,29.55,33,5,38,1.54
2013-6-13,69,64,56,62,58,53,96,83,67,30.04,29.61,22,9,22,0.05
2013-6-14,76,63,54,62,56,51,92,79,55,30.12,30.00,16,5,13,0.00
2013-6-15,78,68,58,69,63,55,92,84,72,30.06,29.88,18,4,20,0.16
2013-6-16,80,72,66,70,66,63,92,83,66,29.93,29.85,20,6,21,0.01
2013-6-17,85,74,62,70,62,52,96,68,36,29.93,29.83,21,4,21,0.00
2013-6-18,68,62,56,62,56,52,94,84,70,30.04,29.87,20,10,22,0.00
2013-6-19,77,66,55,60,55,50,91,69,50,30.13,30.04,14,4,14,0.00
2013-6-20,86,73,60,68,62,53,86,69,47,30.15,30.06,11,2,0,0.00
2013-6-21,86,73,66,70,66,61,90,79,57,30.14,29.88,44,5,53,1.06
2013-6-22,78,72,66,73,68,64,93,86,75,30.08,29.96,13,4,16,0.00
2013-6-23,83,73,64,75,68,62,96,85,71,30.04,29.93,22,5,26,0.00
2013-6-24,85,72,67,76,68,64,95,87,64,30.07,29.88,36,6,41,0.14
2013-6-25,87,76,68,76,70,64,96,84,65,29.95,29.79,22,6,22,0.00
2013-6-26,80,72,66,73,68,63,95,88,74,29.84,29.69,18,4,18,0.42
2013-6-27,88,76,64,75,68,63,97,80,55,29.77,29.66,18,5,22,0.00
2013-6-28,82,71,63,66,63,59,94,77,48,29.68,29.58,30,6,33,0.04
2013-6-29,72,65,62,66,62,59,96,90,80,29.73,29.57,19,7,23,0.00
2013-6-30,72,66,62,64,60,53,94,80,61,29.94,29.72,20,9,21,0.00
2013-7-1,72,66,57,60,57,52,91,74,59,30.02,29.94,24,9,24,0.00
2013-7-2,64,62,60,61,58,55,96,87,76,30.05,30.00,17,8,19,0.01
2013-7-3,73,65,58,66,62,57,98,91,77,30.08,29.99,15,4,16,0.00
2013-7-4,79,68,54,68,62,53,98,82,62,30.11,30.04,13,3,14,0.01
2013-7-5,82,71,56,69,64,54,98,81,63,30.09,30.01,11,2,0,0.00
2013-7-6,78,72,65,70,67,63,97,86,71,30.07,29.97,9,2,0,0.00
2013-7-7,85,75,66,74,70,65,96,83,64,30.03,29.94,14,4,18,0.00
2013-7-8,85,75,71,76,71,68,94,87,70,30.06,29.93,18,6,19,0.17
2013-7-9,83,78,72,78,74,71,97,90,78,29.99,29.86,17,4,20,0.05
2013-7-10,82,74,59,76,69,57,97,86,68,29.99,29.81,33,4,33,0.09
2013-7-11,77,67,56,64,58,53,96,75,46,30.09,29.99,16,4,17,0.01
2013-7-12,82,68,50,66,59,49,97,76,47,30.14,30.06,11,2,0,0.00
2013-7-13,82,71,56,67,62,54,96,75,53,30.16,30.08,13,3,15,0.00
2013-7-14,87,76,64,73,69,63,96,80,55,30.19,30.12,11,3,15,0.00
2013-7-15,89,79,70,78,73,68,97,83,63,30.25,30.17,9,2,0,0.00
2013-7-16,90,80,70,76,73,68,97,81,60,30.30,30.23,10,2,0,0.00
2013-7-17,91,81,68,77,72,67,97,78,53,30.31,30.16,10,2,12,0.00
2013-7-18,92,82,72,78,74,70,96,79,55,30.17,29.96,14,4,19,0.00
2013-7-19,93,84,74,77,74,70,93,74,48,29.96,29.76,22,8,27,0.00
2013-7-20,87,78,70,74,67,58,93,70,39,29.91,29.77,12,4,12,0.00
2013-7-21,86,76,65,72,68,63,97,79,52,29.94,29.83,14,3,14,0.03
2013-7-22,86,75,68,71,68,66,96,80,53,29.85,29.73,10,3,0,0.00
2013-7-23,79,70,62,70,63,54,93,79,67,29.95,29.66,20,8,27,0.00
2013-7-24,70,62,51,54,51,48,89,68,50,30.05,29.93,17,6,20,0.00
2013-7-25,79,65,48,59,54,46,95,71,44,30.12,30.03,9,2,0,0.00
2013-7-26,74,65,59,65,61,55,95,85,66,30.06,29.88,16,4,18,0.06
2013-7-27,68,61,52,65,55,48,96,80,58,29.93,29.85,18,6,22,0.01
2013-7-28,68,58,48,54,49,46,92,75,51,30.04,29.89,20,6,21,0.00
2013-7-29,76,62,50,61,54,47,94,76,48,30.18,30.04,15,4,17,0.00
2013-7-30,69,63,54,65,60,51,94,88,76,30.19,30.07,11,2,0,0.10
2013-7-31,74,68,63,69,65,62,97,92,83,30.07,29.94,10,2,0,0.07
2013-8-1,79,68,57,66,59,52,97,75,40,29.98,29.93,20,5,22,0.01
2013-8-2,83,68,56,73,64,54,95,86,68,29.96,29.83,24,5,27,0.38
2013-8-3,76,69,59,68,61,52,97,78,46,30.10,29.93,14,4,16,0.00
2013-8-4,74,65,53,62,57,51,97,78,51,30.18,30.10,15,3,15,0.00
2013-8-5,72,64,56,65,60,53,93,85,73,30.12,29.89,16,3,18,0.02
2013-8-6,80,70,63,72,67,62,97,89,74,29.92,29.84,10,4,0,0.00
2013-8-7,84,74,67,76,71,64,97,89,77,29.92,29.79,14,5,17,0.17
2013-8-8,78,69,64,67,63,55,96,80,61,29.99,29.91,15,6,15,0.00
2013-8-9,81,70,56,66,62,54,97,77,51,30.02,29.96,10,2,0,0.00
2013-8-10,80,70,60,68,61,56,97,74,46,30.11,30.02,13,3,14,0.00
2013-8-11,82,69,55,64,60,53,96,75,48,30.12,30.03,10,2,0,0.00
2013-8-12,83,72,61,71,66,59,95,80,57,30.05,29.84,15,5,16,0.00
2013-8-13,69,63,50,65,55,46,97,75,48,30.13,29.90,20,7,21,0.00
2013-8-14,70,59,49,55,52,47,95,79,51,30.23,30.13,12,2,13,0.00
2013-8-15,74,61,46,61,52,45,96,76,50,30.19,30.11,11,1,0,0.00
2013-8-16,78,66,54,60,55,51,95,72,43,30.19,30.12,12,2,16,0.00
2013-8-17,78,65,50,61,55,49,96,73,42,30.24,30.16,13,2,15,0.00
2013-8-18,82,67,52,64,58,51,98,75,44,30.20,30.09,9,1,0,0.00
2013-8-19,83,69,53,65,60,51,97,75,47,30.12,30.02,12,2,0,0.00
2013-8-20,85,72,58,68,64,57,97,78,51,30.13,30.03,20,2,20,0.00
2013-8-21,88,75,62,71,66,60,96,75,47,30.10,29.97,13,4,18,0.00
2013-8-22,74,70,62,69,67,61,96,92,81,30.12,29.98,16,4,18,0.57
2013-8-23,81,70,60,68,62,56,98,79,49,30.16,30.08,14,3,16,0.01
2013-8-24,82,70,56,65,59,54,94,71,46,30.26,30.16,11,2,15,0.00
2013-8-25,86,72,58,68,62,55,93,74,49,30.26,30.15,13,4,17,0.00
2013-8-26,88,74,61,74,68,59,94,81,60,30.17,30.01,15,4,16,0.00
2013-8-27,91,80,69,77,72,68,95,78,57,30.02,29.84,18,6,18,0.00
2013-8-28,82,75,70,74,69,66,95,82,69,30.01,29.83,15,6,21,0.00
2013-8-29,88,75,66,72,68,64,98,81,48,30.07,29.96,11,3,14,0.00
2013-8-30,93,76,64,77,69,63,97,81,48,29.97,29.75,24,5,30,0.21
2013-8-31,79,71,68,73,69,66,97,92,80,29.85,29.74,21,4,23,0.07
2013-9-1,82,73,65,72,68,64,98,88,63,29.80,29.73,12,3,14,0.01
2013-9-2,78,68,56,68,63,54,96,84,63,29.97,29.76,14,4,14,0.00
2013-9-3,75,63,52,59,55,50,97,78,50,30.08,29.96,11,2,13,0.01
2013-9-4,81,65,49,62,56,48,98,77,44,30.14,30.05,13,3,16,0.01
2013-9-5,77,66,57,64,57,49,95,75,52,30.22,30.11,14,4,14,0.00
2013-9-6,84,69,57,67,58,48,89,69,52,30.22,30.02,11,3,0,0.00
2013-9-7,87,73,60,67,63,58,97,75,44,30.03,29.89,16,4,18,0.00
2013-9-8,83,74,66,70,68,64,94,81,63,29.98,29.92,14,6,15,0.00
2013-9-9,96,79,64,75,70,63,96,76,48,29.95,29.82,14,5,17,0.00
2013-9-10,96,82,69,70,67,63,93,64,36,30.01,29.89,23,7,23,0.00
2013-9-11,94,79,71,70,69,67,94,73,43,30.04,29.95,19,6,21,0.20
2013-9-12,83,71,60,70,63,48,96,78,33,30.04,29.89,25,6,29,0.08
2013-9-13,66,57,44,58,49,41,93,76,49,30.14,30.03,21,7,26,0.00
2013-9-14,70,54,38,49,42,36,97,71,33,30.21,30.06,12,1,12,0.00
2013-9-15,68,58,48,59,52,44,96,82,59,30.14,29.97,11,2,0,0.16
2013-9-16,64,57,50,57,52,47,97,82,57,30.34,30.14,18,6,20,0.01
2013-9-17,71,59,47,54,50,45,93,75,52,30.34,30.12,13,3,15,0.00
2013-9-18,82,66,54,67,60,50,95,81,59,30.12,29.93,16,3,19,0.18
2013-9-19,83,72,65,74,68,62,94,87,73,29.99,29.80,17,6,23,0.17
2013-9-20,76,68,55,71,62,52,96,83,64,29.84,29.76,24,6,30,0.02
2013-9-21,67,57,47,53,49,43,96,77,47,29.94,29.79,15,5,17,0.01
2013-9-22,66,55,46,50,47,43,92,76,51,30.07,29.94,14,3,18,0.00
2013-9-23,71,56,43,49,46,40,93,71,43,30.12,30.03,10,3,0,0.00
2013-9-24,73,59,48,54,49,45,91,72,44,30.07,29.92,14,4,16,0.00
2013-9-25,74,60,49,56,51,46,94,75,44,29.96,29.90,15,4,17,0.00
2013-9-26,79,61,47,58,51,45,96,75,38,30.09,29.95,11,2,13,0.01
2013-9-27,82,66,50,56,49,45,96,59,30,30.17,30.06,12,3,16,0.00
2013-9-28,85,69,53,61,55,46,91,64,39,30.10,29.91,21,7,25,0.00
2013-9-29,72,59,45,62,53,43,95,80,54,30.03,29.92,17,5,18,0.18
2013-9-30,75,57,41,56,48,39,98,76,39,30.02,29.90,15,2,15,0.01
2013-10-1,79,67,56,66,62,53,97,84,62,29.99,29.91,20,7,23,0.00
2013-10-2,81,68,59,65,60,55,98,77,51,30.08,29.97,12,2,14,0.00
2013-10-3,79,68,60,71,65,57,98,93,74,29.98,29.83,22,4,22,0.00
2013-10-4,85,71,63,71,66,62,96,86,54,29.99,29.91,14,4,12,0.00
2013-10-5,80,70,66,72,68,64,97,91,74,29.95,29.75,14,5,20,0.00
2013-10-6,67,55,45,66,49,41,97,81,55,29.79,29.69,20,7,22,0.00
2013-10-7,66,52,44,50,45,42,95,80,49,30.11,29.78,18,6,20,0.00
2013-10-8,76,57,43,54,48,42,95,73,37,30.22,30.11,11,2,18,0.00
2013-10-9,72,58,43,50,46,41,95,68,36,30.26,30.14,12,2,12,0.00
2013-10-10,75,60,44,55,49,41,93,71,42,30.19,30.06,7,1,0,0.00
2013-10-11,76,62,51,56,49,45,82,66,41,30.10,29.97,12,2,13,0.00
2013-10-12,76,61,50,64,54,44,92,80,57,30.18,29.98,21,4,22,0.00
2013-10-13,65,51,40,45,41,32,93,71,30,30.41,30.18,13,3,15,0.00
2013-10-14,65,50,35,48,42,34,97,77,48,30.41,30.16,13,3,14,0.00
2013-10-15,64,56,50,61,53,45,96,88,76,30.16,29.81,15,7,18,0.00
2013-10-16,54,49,42,48,45,40,93,86,78,29.97,29.88,16,7,18,0.00
2013-10-17,54,47,38,47,44,36,95,88,70,29.96,29.85,19,5,21,0.00
2013-10-18,48,43,37,44,40,36,96,88,75,30.00,29.88,15,6,17,0.00
2013-10-19,53,46,40,42,39,34,95,77,49,29.97,29.82,22,8,25,0.00
2013-10-20,66,51,38,46,42,36,91,71,44,29.92,29.76,27,8,27,0.00
2013-10-21,54,45,30,47,37,25,93,76,54,30.00,29.83,20,8,23,0.00
2013-10-22,42,34,24,35,30,22,95,85,65,30.03,29.95,10,4,0,0.00
2013-11-29,41,31,26,24,19,-100,82,69,38,30.64,29.97,10,4,6,0.00
2013-11-30,49,35,26,33,28,21,88,74,52,30.47,30.10,20,7,22,0.00
2013-12-1,44,33,26,38,30,23,96,89,76,30.13,30.01,12,3,0,0.00
2013-12-2,40,35,29,34,31,28,96,84,65,30.01,29.78,16,5,16,0.15
2013-12-3,50,43,36,48,42,34,97,95,93,29.78,29.70,14,6,16,0.00
2013-12-4,56,50,42,55,49,39,98,96,88,29.77,29.54,24,8,28,0.00
2013-12-5,42,27,22,39,22,16,91,83,77,30.29,29.71,24,12,25,0.00
2013-12-6,22,19,11,16,12,7,84,77,67,30.57,30.26,11,6,0,0.00
2013-12-7,21,13,6,9,6,2,87,74,52,30.74,30.57,13,4,0,0.00
2013-12-8,25,20,10,24,17,7,95,88,78,30.65,30.00,15,6,19,0.00
2013-12-9,26,17,2,24,13,-3,94,83,72,30.30,29.99,23,12,26,0.00
2013-12-10,23,11,-6,15,5,-8,86,77,64,30.37,30.12,26,10,30,0.00
2013-12-11,20,12,-4,15,8,-8,92,82,71,30.64,30.34,16,7,0,0.00
2013-12-12,21,7,-9,14,2,-11,88,80,70,30.63,30.30,22,7,22,0.00
2013-12-13,29,21,8,26,17,5,95,84,71,30.30,30.14,10,4,0,0.01
2013-12-14,28,27,21,27,26,19,96,93,87,30.14,29.89,16,8,17,0.00
2013-12-15,21,13,10,19,9,6,93,84,79,30.18,29.98,23,11,26,0.01
2013-12-16,20,16,11,18,13,7,94,88,79,30.21,30.07,11,3,0,0.00
2013-12-17,30,23,17,26,20,15,95,89,79,30.14,30.01,18,10,20,0.04
2013-12-18,36,21,7,32,17,4,91,83,67,30.24,29.90,21,9,25,0.00
2013-12-19,39,35,28,37,33,26,97,91,83,29.98,29.81,19,4,21,0.09
2013-12-20,40,35,32,39,34,32,98,97,96,29.82,29.73,11,4,0,0.21
2013-12-21,34,32,31,33,32,30,98,98,97,29.86,29.53,19,7,22,0.46
2013-12-22,34,31,26,32,30,23,97,94,88,30.15,29.56,19,9,21,0.02
2013-12-23,26,14,0,24,10,-3,93,86,77,30.52,30.15,23,12,23,0.00
2013-12-24,18,8,0,13,4,-4,87,83,79,30.65,30.43,18,8,0,0.00
2013-12-25,27,24,18,26,20,13,95,88,78,30.44,30.16,21,10,22,0.00
2013-12-26,34,26,12,29,22,8,92,85,79,30.35,30.15,22,10,25,0.01
2013-12-27,42,34,22,35,30,21,95,86,73,30.34,30.14,18,8,20,0.00
2013-12-28,49,38,31,40,34,29,92,83,69,30.15,29.89,17,8,21,0.00
2013-12-29,35,29,17,32,26,12,93,88,81,30.19,29.80,18,9,23,0.00
2013-12-30,17,11,6,12,7,2,90,82,74,30.37,30.18,13,6,0,0.00
2013-12-31,16,8,-2,14,5,-5,92,89,86,30.44,30.23,13,5,0,0.00
2014-1-1,20,18,14,16,15,12,92,90,85,30.33,30.18,16,9,0,0.00
2014-1-2,18,13,-3,16,11,-6,92,89,79,30.44,30.12,21,10,25,0.00